Location: Aranbee
(34.0885°N, 118.2342°W)
Time: 12:50:48
(UTC+00:00)

Tiros 1 - Pass Details

Date: 03 December 2020
Orbit: 630 x 663 km, 48.4° (Epoch: 21 January)

Event Time Altitude Azimuth Distance (km) Brightness Sun altitude
Rises 21:35:36 0° 254° (WSW) 2,982 11.2 27.6°
Reaches altitude 10° 21:38:05 10° 262° (W) 2,074 10.4 27.4°
Maximum altitude 21:42:33 37° 331° (NNW) 1,020 8.2 26.9°
Drops below altitude 10° 21:47:01 10° 39° (NE) 2,079 9.3 26.4°
Sets 21:49:31 0° 47° (NE) 2,991 10.0 26.1°
